TEVEL-8 (50989 NORAD) Tracking and Keplerian Element Data

This shows tracking and keplerian element data for the satellite.

Feedback or suggestion? Click here.




ElementValue
Catalog50989
NameTEVEL-8
Epoch Orbit13363
Epoch Day160.16464224
Epoch Year2024
RAAN235.6843
Inclination97.3794
Eccentricity0.0001659
Argument of Perigee219.7414
Mean Anonmoly140.3724
Mean Motion15.65186636
Decay Rate0.00204215
L11 50989U 22002F 24160.16464224 .00204215 00000+0 20216-2 0 9995
L22 50989 97.3794 235.6843 0001659 219.7414 140.3724 15.65186636133636



Live tracking and technical data element details for TEVEL-8 (NORAD 50989). TEVEL-8 can be tracked NOW for your location showing map with azimuth and elevation plus other details from your city location.







IsCatalogInMostPopularTable: catalog: 50989, numindb: 68
Update: records affected: 1



GetName: 50989 TEVEL-8

Hit Count: updated at: Thu, 23 Jan 2025 16:42:17 GMT